This is the latest recevied weather packets stored in our database for station/object DD3UTS-13. If no packets are shown the sender has not sent any weather packets the latest 1 day(s).
| Time | Temp. | Humidity | Pressure | Rain* | Wind** | Luminosity | Snow |
|---|---|---|---|---|---|---|---|
| 1778046332 | 13.33° C | 81% | 1003.9 hPa | 0 mm | - | 116 W/m² | - |
| 1778045732 | 13.33° C | 81% | 1004 hPa | 0 mm | - | 115 W/m² | - |
| 1778045432 | 12.78° C | 82% | 1004.1 hPa | 0 mm | - | 106 W/m² | - |
| 1778045132 | 12.78° C | 82% | 1004 hPa | 0 mm | - | 103 W/m² | - |
| 1778044532 | 12.22° C | 83% | 1004 hPa | 0 mm | - | 96 W/m² | - |
| 1778043632 | 12.22° C | 83% | 1003.8 hPa | 29.46 mm | - | 47 W/m² | - |
| 1778043032 | 12.22° C | 84% | 1003.8 hPa | 29.46 mm | - | 50 W/m² | - |
| 1778042732 | 11.67° C | 84% | 1003.7 hPa | 29.46 mm | - | 42 W/m² | - |
| 1778042432 | 11.67° C | 84% | 1003.7 hPa | 29.46 mm | - | 45 W/m² | - |
| 1778042132 | 11.67° C | 85% | 1003.6 hPa | 29.46 mm | - | 46 W/m² | - |
| 1778041832 | 11.67° C | 85% | 1003.5 hPa | 29.46 mm | - | 41 W/m² | - |
| 1778041532 | 11.67° C | 85% | 1003.5 hPa | 29.46 mm | - | 29 W/m² | - |
| 1778041232 | 11.67° C | 85% | 1003.5 hPa | 29.46 mm | - | 27 W/m² | - |
| 1778040932 | 11.67° C | 85% | 1003.7 hPa | 29.46 mm | - | 21 W/m² | - |
| 1778040632 | 11.67° C | 86% | 1003.7 hPa | 29.46 mm | - | 15 W/m² | - |
| 1778040331 | 11.11° C | 86% | 1003.7 hPa | 29.46 mm | - | 10 W/m² | - |
| 1778040032 | 11.11° C | 86% | 1003.7 hPa | 29.46 mm | - | 6 W/m² | - |
| 1778039732 | 11.11° C | 86% | 1003.7 hPa | 29.21 mm | - | 3 W/m² | - |
| 1778039431 | 11.11° C | 86% | 1003.6 hPa | 29.21 mm | - | 0 W/m² | - |
| 1778039132 | 11.11° C | 86% | 1003.6 hPa | 29.21 mm | - | 0 W/m² | - |
| 1778038832 | 11.11° C | 86% | 1003.6 hPa | 29.21 mm | - | 0 W/m² | - |
| 1778038532 | 10.56° C | 86% | 1003.7 hPa | 29.21 mm | - | 0 W/m² | - |
| 1778037632 | 10.56° C | 87% | 1003.7 hPa | 29.21 mm | - | 0 W/m² | - |
| 1778037331 | 10.56° C | 87% | 1003.7 hPa | 29.21 mm | - | 0 W/m² | - |
| 1778037032 | 10.56° C | 87% | 1003.8 hPa | 29.21 mm | - | 0 W/m² | - |
* Rain latest 24 hours (hover to see other rain measurements)
** Current wind speed in m/s (hover to see current wind gust speed)